DAL1735 KATL-KMCO

Flight info

Callsign DAL1735
Flight time 0h 54m
Altitude 39000
Route SMLTZ3 WALET ZJAYX GRNCH5
Aircraft MD11/H-SDE1E2E3FGHIJ2J3J4J5M1RWXY/LB1D1

Departure

Time 2026-05-07 02:28
Airport Hartsfield Jackson Atlanta International Airport (KATL)

Arrival

Time 2026-05-07 03:23
Airport Orlando International Airport (KMCO)
Time Latitude Longitude Altitude Speed Heading
2026-05-07 02:01 33.63948 -84.43975 1043 ft 0 kts 91°
2026-05-07 02:15 33.63949 -84.44001 1043 ft 4 kts 91°
2026-05-07 02:15 33.63949 -84.44032 1043 ft 4 kts 92°
2026-05-07 02:15 33.63951 -84.44053 1043 ft 4 kts 142°
2026-05-07 02:16 33.63962 -84.44057 1043 ft 4 kts 191°
2026-05-07 02:16 33.63988 -84.44052 1043 ft 3 kts 181°
2026-05-07 02:16 33.63991 -84.44051 1043 ft 0 kts 180°
2026-05-07 02:19 33.63987 -84.44051 1043 ft 1 kts 180°
2026-05-07 02:19 33.63979 -84.44051 1043 ft 2 kts 180°
2026-05-07 02:19 33.63967 -84.44051 1043 ft 2 kts 180°
2026-05-07 02:19 33.63954 -84.44051 1043 ft 3 kts 180°
2026-05-07 02:20 33.63910 -84.44052 1044 ft 10 kts 180°
2026-05-07 02:20 33.63823 -84.44052 1043 ft 13 kts 180°
2026-05-07 02:20 33.63745 -84.44052 1043 ft 9 kts 180°
2026-05-07 02:20 33.63698 -84.44041 1043 ft 5 kts 153°
2026-05-07 02:21 33.63682 -84.44023 1043 ft 2 kts 132°
2026-05-07 02:21 33.63671 -84.43998 1043 ft 8 kts 113°
2026-05-07 02:21 33.63664 -84.43888 1043 ft 17 kts 88°
2026-05-07 02:21 33.63666 -84.43747 1043 ft 16 kts 90°
2026-05-07 02:22 33.63666 -84.43624 1043 ft 14 kts 90°
2026-05-07 02:22 33.63665 -84.43520 1043 ft 11 kts 90°
2026-05-07 02:22 33.63665 -84.43434 1042 ft 9 kts 90°
2026-05-07 02:22 33.63665 -84.43364 1042 ft 7 kts 90°
2026-05-07 02:23 33.63665 -84.43313 1042 ft 5 kts 90°
2026-05-07 02:23 33.63665 -84.43265 1042 ft 6 kts 90°
2026-05-07 02:23 33.63665 -84.43202 1043 ft 9 kts 90°
2026-05-07 02:23 33.63665 -84.43096 1043 ft 16 kts 89°
2026-05-07 02:24 33.63666 -84.42940 1042 ft 21 kts 90°
2026-05-07 02:24 33.63660 -84.42744 1043 ft 25 kts 94°
2026-05-07 02:24 33.63656 -84.42536 1043 ft 25 kts 90°
2026-05-07 02:24 33.63655 -84.42333 1043 ft 24 kts 90°
2026-05-07 02:25 33.63656 -84.42137 1043 ft 23 kts 90°
2026-05-07 02:25 33.63656 -84.41944 1043 ft 23 kts 89°
2026-05-07 02:25 33.63656 -84.41756 1043 ft 23 kts 90°
2026-05-07 02:25 33.63656 -84.41567 1042 ft 22 kts 90°
2026-05-07 02:26 33.63655 -84.41382 1042 ft 22 kts 90°
2026-05-07 02:26 33.63656 -84.41203 1043 ft 21 kts 89°
2026-05-07 02:26 33.63657 -84.41035 1043 ft 19 kts 90°
2026-05-07 02:26 33.63650 -84.40940 1043 ft 2 kts 120°
2026-05-07 02:27 33.63639 -84.40930 1043 ft 2 kts 143°
2026-05-07 02:27 33.63626 -84.40923 1043 ft 3 kts 158°
2026-05-07 02:27 33.63562 -84.40914 1043 ft 15 kts 177°
2026-05-07 02:27 33.63481 -84.40952 1044 ft 9 kts 237°
2026-05-07 02:28 33.63471 -84.41047 1042 ft 17 kts 267°
2026-05-07 02:28 33.63471 -84.41509 1042 ft 109 kts 270°
2026-05-07 02:28 33.63470 -84.42789 1233 ft 179 kts 270°
2026-05-07 02:28 33.63488 -84.44172 2766 ft 159 kts 268°
2026-05-07 02:29 33.63482 -84.45515 4116 ft 160 kts 265°
2026-05-07 02:29 33.63464 -84.46949 4979 ft 192 kts 264°
2026-05-07 02:29 33.63438 -84.48718 5136 ft 236 kts 265°
2026-05-07 02:29 33.63422 -84.50789 5829 ft 251 kts 266°
2026-05-07 02:30 33.63258 -84.52876 6828 ft 252 kts 249°
2026-05-07 02:30 33.62366 -84.54638 7806 ft 251 kts 224°
2026-05-07 02:30 33.60854 -84.55706 8820 ft 260 kts 199°
2026-05-07 02:30 33.59006 -84.55795 9872 ft 276 kts 173°
2026-05-07 02:31 33.57143 -84.54855 10379 ft 315 kts 154°
2026-05-07 02:31 33.55271 -84.53171 10536 ft 356 kts 150°
2026-05-07 02:31 33.53150 -84.51587 11302 ft 360 kts 157°
2026-05-07 02:31 33.50902 -84.50163 12216 ft 371 kts 159°
2026-05-07 02:32 33.48566 -84.48710 12954 ft 386 kts 159°
2026-05-07 02:32 33.46212 -84.47207 13332 ft 383 kts 158°
2026-05-07 02:32 33.43857 -84.45674 14286 ft 385 kts 159°
2026-05-07 02:32 33.41491 -84.44132 15114 ft 390 kts 159°
2026-05-07 02:33 33.39101 -84.42592 15874 ft 399 kts 159°
2026-05-07 02:33 33.36647 -84.41022 16663 ft 405 kts 159°
2026-05-07 02:33 33.34139 -84.39410 17532 ft 412 kts 159°
2026-05-07 02:33 33.31604 -84.37756 18413 ft 417 kts 159°
2026-05-07 02:34 33.29039 -84.36074 19194 ft 424 kts 159°
2026-05-07 02:34 33.26436 -84.34366 19962 ft 430 kts 159°
2026-05-07 02:34 33.23793 -84.32636 20732 ft 436 kts 159°
2026-05-07 02:34 33.21125 -84.30880 21437 ft 441 kts 159°
2026-05-07 02:35 33.18419 -84.29114 22033 ft 446 kts 159°
2026-05-07 02:35 33.15681 -84.27319 22704 ft 449 kts 159°
2026-05-07 02:35 33.12933 -84.25499 23191 ft 456 kts 159°
2026-05-07 02:35 33.10127 -84.23671 23886 ft 460 kts 159°
2026-05-07 02:36 33.07299 -84.21832 24533 ft 465 kts 159°
2026-05-07 02:36 33.04442 -84.19976 25137 ft 471 kts 159°
2026-05-07 02:36 33.01532 -84.18154 25704 ft 473 kts 163°
2026-05-07 02:36 32.98548 -84.16634 26299 ft 472 kts 167°
2026-05-07 02:37 32.95453 -84.15287 26834 ft 475 kts 169°
2026-05-07 02:37 32.92308 -84.14014 27360 ft 480 kts 170°
2026-05-07 02:37 32.89113 -84.12746 27909 ft 485 kts 170°
2026-05-07 02:37 32.85901 -84.11461 28388 ft 491 kts 169°
2026-05-07 02:38 32.82643 -84.10138 28876 ft 496 kts 169°
2026-05-07 02:38 32.79361 -84.08790 29351 ft 501 kts 169°
2026-05-07 02:38 32.76053 -84.07422 29807 ft 506 kts 169°
2026-05-07 02:38 32.72726 -84.06041 30275 ft 510 kts 169°
2026-05-07 02:39 32.69370 -84.04644 30875 ft 510 kts 169°
2026-05-07 02:39 32.66018 -84.03246 31543 ft 509 kts 169°
2026-05-07 02:39 32.62721 -84.01874 32207 ft 507 kts 169°
2026-05-07 02:39 32.59413 -84.00502 32834 ft 506 kts 169°
2026-05-07 02:40 32.56090 -83.99127 33475 ft 504 kts 169°
2026-05-07 02:40 32.52780 -83.97762 34037 ft 503 kts 169°
2026-05-07 02:40 32.49473 -83.96398 34611 ft 502 kts 169°
2026-05-07 02:40 32.46171 -83.95038 35160 ft 500 kts 169°
2026-05-07 02:41 32.42894 -83.93688 35684 ft 499 kts 170°
2026-05-07 02:41 32.39622 -83.92342 36216 ft 497 kts 170°
2026-05-07 02:41 32.36373 -83.90921 36618 ft 503 kts 164°
2026-05-07 02:41 32.33266 -83.88907 37098 ft 512 kts 155°
2026-05-07 02:42 32.30348 -83.86472 37558 ft 515 kts 150°
2026-05-07 02:42 32.27525 -83.83852 37934 ft 516 kts 149°
2026-05-07 02:42 32.24728 -83.81189 38312 ft 515 kts 149°
2026-05-07 02:42 32.21950 -83.78564 38683 ft 510 kts 149°
2026-05-07 02:43 32.19163 -83.75982 38930 ft 509 kts 150°
2026-05-07 02:43 32.16342 -83.73423 38976 ft 512 kts 151°
2026-05-07 02:43 32.10620 -83.68320 38990 ft 518 kts 151°
2026-05-07 02:44 32.04903 -83.63239 39020 ft 518 kts 151°
2026-05-07 02:44 31.99153 -83.58128 39013 ft 518 kts 151°
2026-05-07 02:45 31.93395 -83.53015 39027 ft 517 kts 151°
2026-05-07 02:45 31.87652 -83.47923 39027 ft 517 kts 150°
2026-05-07 02:46 31.81907 -83.42839 39035 ft 517 kts 150°
2026-05-07 02:46 31.76147 -83.37753 39035 ft 517 kts 150°
2026-05-07 02:47 31.70418 -83.32703 39036 ft 518 kts 150°
2026-05-07 02:47 31.64584 -83.27793 39036 ft 511 kts 157°
2026-05-07 02:48 31.58346 -83.23967 39036 ft 504 kts 163°
2026-05-07 02:48 31.51989 -83.20529 39036 ft 504 kts 163°
2026-05-07 02:49 31.45635 -83.17038 39045 ft 505 kts 162°
2026-05-07 02:49 31.39293 -83.13477 39045 ft 506 kts 162°
2026-05-07 02:50 31.32947 -83.09891 39045 ft 506 kts 162°
2026-05-07 02:50 31.26603 -83.06316 39045 ft 506 kts 162°
2026-05-07 02:51 31.20302 -83.02773 39041 ft 506 kts 162°
2026-05-07 02:51 31.13951 -82.99211 39036 ft 506 kts 162°
2026-05-07 02:52 31.07601 -82.95657 39035 ft 507 kts 162°
2026-05-07 02:52 31.01241 -82.92098 39036 ft 507 kts 162°
2026-05-07 02:53 30.94879 -82.88543 39036 ft 507 kts 162°
2026-05-07 02:53 30.88528 -82.84950 39033 ft 510 kts 158°
2026-05-07 02:54 30.82602 -82.80251 39036 ft 520 kts 148°
2026-05-07 02:54 30.76983 -82.74944 39041 ft 522 kts 147°
2026-05-07 02:55 30.71362 -82.69653 39048 ft 522 kts 148°
2026-05-07 02:55 30.65673 -82.64432 39054 ft 521 kts 148°
2026-05-07 02:56 30.59957 -82.59244 39055 ft 520 kts 148°
2026-05-07 02:56 30.54246 -82.54072 39054 ft 520 kts 148°
2026-05-07 02:57 30.48536 -82.48905 39054 ft 521 kts 148°
2026-05-07 02:57 30.42829 -82.43738 39063 ft 521 kts 148°
2026-05-07 02:58 30.37118 -82.38580 38877 ft 516 kts 148°
2026-05-07 02:58 30.34330 -82.36057 38555 ft 503 kts 148°
2026-05-07 02:58 30.31621 -82.33608 38096 ft 498 kts 148°
2026-05-07 02:59 30.28895 -82.31152 37532 ft 496 kts 148°
2026-05-07 02:59 30.26183 -82.28715 36975 ft 495 kts 148°
2026-05-07 02:59 30.23453 -82.26271 36419 ft 495 kts 148°
2026-05-07 02:59 30.20608 -82.24104 35852 ft 487 kts 159°
2026-05-07 03:00 30.17502 -82.22667 35302 ft 475 kts 172°
2026-05-07 03:00 30.14292 -82.21882 34755 ft 471 kts 179°
2026-05-07 03:00 30.11028 -82.21371 34211 ft 474 kts 180°
2026-05-07 03:00 30.07737 -82.20930 33245 ft 480 kts 183°
2026-05-07 03:01 30.04381 -82.20838 31604 ft 484 kts 189°
2026-05-07 03:01 30.01036 -82.21096 30466 ft 479 kts 189°
2026-05-07 03:01 29.97698 -82.20838 30161 ft 487 kts 176°
2026-05-07 03:01 29.94396 -82.19877 29833 ft 492 kts 170°
2026-05-07 03:02 29.91124 -82.18705 29485 ft 492 kts 169°
2026-05-07 03:02 29.87830 -82.17611 29125 ft 491 kts 172°
2026-05-07 03:02 29.84527 -82.16681 28761 ft 489 kts 174°
2026-05-07 03:02 29.81191 -82.15885 28410 ft 488 kts 176°
2026-05-07 03:03 29.78977 -82.15409 28180 ft 488 kts 176°
2026-05-07 03:03 29.74544 -82.14520 27661 ft 489 kts 177°
2026-05-07 03:03 29.71175 -82.13865 27134 ft 490 kts 177°
2026-05-07 03:03 29.67819 -82.13214 26554 ft 490 kts 176°
2026-05-07 03:04 29.64458 -82.12557 25945 ft 486 kts 176°
2026-05-07 03:04 29.62259 -82.12123 25554 ft 483 kts 176°
2026-05-07 03:04 29.58952 -82.11467 24931 ft 479 kts 176°
2026-05-07 03:04 29.55942 -82.10869 24373 ft 475 kts 176°
2026-05-07 03:05 29.53040 -82.10294 23836 ft 472 kts 176°
2026-05-07 03:05 29.49815 -82.09655 23236 ft 467 kts 175°
2026-05-07 03:05 29.46623 -82.09020 22644 ft 463 kts 175°
2026-05-07 03:05 29.43469 -82.08394 22026 ft 458 kts 175°
2026-05-07 03:06 29.40338 -82.07774 21416 ft 454 kts 175°
2026-05-07 03:06 29.37250 -82.07161 20976 ft 446 kts 175°
2026-05-07 03:06 29.34214 -82.06557 20749 ft 435 kts 175°
2026-05-07 03:06 29.31298 -82.05905 20341 ft 424 kts 169°
2026-05-07 03:07 29.28527 -82.04729 19732 ft 424 kts 159°
2026-05-07 03:07 29.25920 -82.03196 19120 ft 420 kts 154°
2026-05-07 03:07 29.23392 -82.01536 18512 ft 416 kts 153°
2026-05-07 03:07 29.20940 -81.99890 17914 ft 411 kts 152°
2026-05-07 03:08 29.18457 -81.98237 17324 ft 406 kts 152°
2026-05-07 03:08 29.16045 -81.96658 16748 ft 402 kts 153°
2026-05-07 03:08 29.13631 -81.95098 16143 ft 398 kts 153°
2026-05-07 03:08 29.11233 -81.93565 15530 ft 392 kts 153°
2026-05-07 03:09 29.08865 -81.92059 14970 ft 387 kts 153°
2026-05-07 03:09 29.06597 -81.90444 14424 ft 383 kts 145°
2026-05-07 03:09 29.04559 -81.88523 13887 ft 374 kts 139°
2026-05-07 03:09 29.02695 -81.86535 13371 ft 364 kts 137°
2026-05-07 03:10 29.00880 -81.84525 12868 ft 359 kts 137°
2026-05-07 03:10 28.99099 -81.82547 12380 ft 354 kts 136°
2026-05-07 03:10 28.97436 -81.80493 12008 ft 352 kts 130°
2026-05-07 03:10 28.95908 -81.78319 11494 ft 349 kts 128°
2026-05-07 03:11 28.94450 -81.76136 10984 ft 344 kts 127°
2026-05-07 03:11 28.93017 -81.73962 10663 ft 340 kts 127°
2026-05-07 03:11 28.91619 -81.71845 10537 ft 322 kts 128°
2026-05-07 03:11 28.90312 -81.69877 10411 ft 301 kts 128°
2026-05-07 03:12 28.89074 -81.68021 10191 ft 298 kts 128°
2026-05-07 03:12 28.87821 -81.66149 9751 ft 296 kts 128°
2026-05-07 03:12 28.86576 -81.64296 9284 ft 292 kts 128°
2026-05-07 03:12 28.85347 -81.62468 8835 ft 288 kts 128°
2026-05-07 03:13 28.84133 -81.60662 8403 ft 285 kts 128°
2026-05-07 03:13 28.82926 -81.58871 8022 ft 283 kts 128°
2026-05-07 03:13 28.81724 -81.57086 7651 ft 283 kts 128°
2026-05-07 03:13 28.80529 -81.55312 7283 ft 281 kts 128°
2026-05-07 03:14 28.79364 -81.53562 7066 ft 271 kts 126°
2026-05-07 03:14 28.78423 -81.51746 6998 ft 262 kts 118°
2026-05-07 03:14 28.76815 -81.48024 6881 ft 263 kts 116°
2026-05-07 03:15 28.76017 -81.46132 6668 ft 266 kts 116°
2026-05-07 03:15 28.75219 -81.44233 6290 ft 265 kts 116°
2026-05-07 03:15 28.74431 -81.42359 6038 ft 258 kts 117°
2026-05-07 03:15 28.73657 -81.40524 5977 ft 256 kts 116°
2026-05-07 03:16 28.72880 -81.38685 5504 ft 258 kts 116°
2026-05-07 03:16 28.72109 -81.36857 5126 ft 254 kts 117°
2026-05-07 03:16 28.71326 -81.35075 4754 ft 250 kts 122°
2026-05-07 03:16 28.70220 -81.33659 4370 ft 232 kts 147°
2026-05-07 03:17 28.68768 -81.33096 4064 ft 212 kts 174°
2026-05-07 03:17 28.67312 -81.32977 4002 ft 210 kts 176°
2026-05-07 03:17 28.65855 -81.32905 3994 ft 210 kts 179°
2026-05-07 03:17 28.64406 -81.32879 3850 ft 209 kts 179°
2026-05-07 03:18 28.62962 -81.32860 3601 ft 207 kts 179°
2026-05-07 03:18 28.61543 -81.32844 3325 ft 196 kts 179°
2026-05-07 03:18 28.60251 -81.32833 3055 ft 175 kts 179°
2026-05-07 03:18 28.59080 -81.32823 2832 ft 167 kts 178°
2026-05-07 03:19 28.57912 -81.32818 2629 ft 159 kts 178°
2026-05-07 03:19 28.56875 -81.32808 2364 ft 148 kts 177°
2026-05-07 03:19 28.55840 -81.32794 2225 ft 149 kts 177°
2026-05-07 03:19 28.54798 -81.32783 2046 ft 150 kts 177°
2026-05-07 03:20 28.53751 -81.32772 1848 ft 151 kts 177°
2026-05-07 03:20 28.52700 -81.32760 1654 ft 151 kts 178°
2026-05-07 03:20 28.51645 -81.32756 1443 ft 152 kts 179°
2026-05-07 03:20 28.50584 -81.32762 1197 ft 152 kts 179°
2026-05-07 03:21 28.49531 -81.32745 1002 ft 152 kts 178°
2026-05-07 03:21 28.48473 -81.32726 815 ft 153 kts 180°
2026-05-07 03:21 28.47422 -81.32719 634 ft 149 kts 180°
2026-05-07 03:21 28.46399 -81.32712 451 ft 145 kts 180°
2026-05-07 03:22 28.45395 -81.32701 275 ft 144 kts 179°
2026-05-07 03:22 28.44402 -81.32686 111 ft 137 kts 180°
2026-05-07 03:22 28.43582 -81.32686 107 ft 100 kts 179°
2026-05-07 03:22 28.43015 -81.32680 108 ft 63 kts 179°
2026-05-07 03:23 28.42738 -81.32668 106 ft 31 kts 168°
2026-05-07 03:23 28.42596 -81.32569 107 ft 21 kts 122°
2026-05-07 03:23 28.42529 -81.32438 109 ft 18 kts 118°
2026-05-07 03:23 28.42475 -81.32328 109 ft 17 kts 120°
2026-05-07 03:24 28.42425 -81.32228 113 ft 14 kts 120°
2026-05-07 03:24 28.42377 -81.32136 112 ft 14 kts 122°
2026-05-07 03:24 28.42324 -81.32047 111 ft 15 kts 125°
2026-05-07 03:24 28.42270 -81.31938 107 ft 17 kts 105°
2026-05-07 03:25 28.42263 -81.31808 107 ft 17 kts 89°
2026-05-07 03:25 28.42265 -81.31675 106 ft 17 kts 88°
2026-05-07 03:25 28.42267 -81.31539 104 ft 18 kts 89°
2026-05-07 03:25 28.42268 -81.31398 103 ft 18 kts 90°
2026-05-07 03:26 28.42264 -81.31253 105 ft 18 kts 97°
2026-05-07 03:26 28.42247 -81.31111 102 ft 18 kts 98°
2026-05-07 03:26 28.42234 -81.30973 103 ft 17 kts 90°
2026-05-07 03:26 28.42242 -81.30836 102 ft 17 kts 85°
2026-05-07 03:27 28.42251 -81.30705 103 ft 16 kts 85°
2026-05-07 03:27 28.42260 -81.30583 104 ft 15 kts 85°
2026-05-07 03:27 28.42269 -81.30453 103 ft 17 kts 85°
2026-05-07 03:27 28.42275 -81.30323 102 ft 16 kts 89°
2026-05-07 03:28 28.42276 -81.30195 102 ft 16 kts 89°
2026-05-07 03:28 28.42277 -81.30068 102 ft 16 kts 89°
2026-05-07 03:28 28.42278 -81.29942 102 ft 16 kts 88°
2026-05-07 03:28 28.42284 -81.29832 102 ft 11 kts 77°
2026-05-07 03:29 28.42317 -81.29798 101 ft 6 kts 19°
2026-05-07 03:29 28.42361 -81.29794 103 ft 7 kts
2026-05-07 03:29 28.42419 -81.29794 102 ft 9 kts 359°
2026-05-07 03:29 28.42490 -81.29795 104 ft 11 kts 359°
2026-05-07 03:30 28.42575 -81.29796 102 ft 13 kts 358°
2026-05-07 03:30 28.42669 -81.29798 104 ft 14 kts 360°
2026-05-07 03:30 28.42769 -81.29798 102 ft 14 kts 360°
2026-05-07 03:30 28.42864 -81.29799 103 ft 12 kts 356°
2026-05-07 03:31 28.42900 -81.29831 101 ft 5 kts 294°
2026-05-07 03:31 28.42905 -81.29858 104 ft 2 kts 273°
2026-05-07 03:31 28.42900 -81.29871 102 ft 2 kts 243°
2026-05-07 03:31 28.42876 -81.29879 105 ft 7 kts 188°
2026-05-07 03:32 28.42827 -81.29890 102 ft 3 kts 219°
2026-05-07 03:32 28.42823 -81.29910 102 ft 2 kts 266°
2026-05-07 03:32 28.42827 -81.29937 102 ft 5 kts 277°
2026-05-07 03:32 28.42832 -81.29965 103 ft 4 kts 284°
2026-05-07 03:33 28.42836 -81.29982 103 ft 2 kts 284°
2026-05-07 03:33 28.42837 -81.29986 102 ft 0 kts 284°